Regional Weather Roundup
Issued by NWS

Home | Current Version | Previous Version | Graphics & Text | Print | Product List | Glossary Off
Versions: 1 2 3 4 5 6 7 8 9 10 11 12 13 14 15 16 17 18 19 20 21 22 23 24 25 26 27 28 29 30 31 32 33 34 35 36 37 38 39 40 41 42 43 44 45 46 47 48 49 50

000
ASUS43 KMKX 210321
RWRWI

WISCONSIN REGIONAL WEATHER ROUNDUP
NATIONAL WEATHER SERVICE MILWAUKEE/SULLIVAN WI
1000 PM CDT SAT SEP 20 2014

NOTE: "FAIR" INDICATES FEW OR NO CLOUDS BELOW 12,000 FEET WITH NO
SIGNIFICANT WEATHER AND/OR OBSTRUCTIONS TO VISIBILITY.

WIZ001-002-006>008-014>016-023>028-210400-
NORTHWEST WISCONSIN

CITY           SKY/WX    TMP DP  RH WIND       PRES   REMARKS
SUPERIOR ARPT  RAIN      55  54  99 SW3       29.71S
ASHLAND        LGT RAIN  54  52  93 SW7       29.71S
HAYWARD        LGT RAIN  55  54  96 W6        29.72F
SIREN          RAIN      55  53  92 W9        29.76S
RICE LAKE      CLOUDY    57  53  87 W9        29.78S
LADYSMITH      CLOUDY    56  54  93 W6        29.76R
EAU CLAIRE     CLOUDY    58  54  86 W13       29.78R
MENOMONIE      PTCLDY    58  55  88 W10G17    29.81R
NEW RICHMOND   CLEAR     55  52  91 W9        29.82S
OSCEOLA        CLEAR     56  53  91 W8        29.83S
$$

WIZ003>005-009-010-017-018-210400-
NORTH CENTRAL WISCONSIN

CITY           SKY/WX    TMP DP  RH WIND       PRES   REMARKS
WOODRUFF       CLOUDY    57  54  90 CALM      29.70F
RHINELANDER    CLOUDY    56  52  86 W5        29.71F
EAGLE RIVER    CLOUDY    54  53  96 CALM      29.69F
LAND O LAKES   CLOUDY    50  49  97 CALM      29.71F
PHILLIPS       HVY RAIN  53  52  97 NW3       29.73F
TOMAHAWK       LGT RAIN  54  50  89 W14G22    29.75R
MEDFORD        CLOUDY    54  52  95 NW5       29.74S
MERRILL        TSTM      56  55  95 NW15G24   29.74R
$$

WIZ029-030-035-036-043>047-210400-
CENTRAL WISCONSIN

CITY           SKY/WX    TMP DP  RH WIND       PRES   REMARKS
WAUSAU         RAIN      57  54  89 NW7       29.70F FOG
MOSINEE        TSTM      63  59  88 W25G41    29.75R
MARSHFIELD     CLOUDY    57  54  89 NW8       29.73F
STEVENS POINT  TSTM      57  54  88 W12G32    29.76R
WAUPACA        CLOUDY    64  59  82 SW3       29.70F
WAUTOMA        HVY RAIN  61  59  94 NW17G30   29.76R VSB 1
WISC RAPIDS    CLOUDY    58  56  93 N6        29.74F
CAMP DOUGLAS   CLOUDY    59  59 100 CALM      29.73F
$$

WIZ011>013-019>022-031-037>040-048>050-210400-
NORTHEAST WISCONSIN

CITY           SKY/WX    TMP DP  RH WIND       PRES   REMARKS
ANTIGO         CLOUDY    60  54  80 NW5       29.70F
STURGEON BAY   CLOUDY    63  59  88 N9G20     29.67F
GREEN BAY      CLOUDY    65  58  78 SW5       29.68F
MANITOWOC      PTCLDY    66  62  87 W6        29.69S
APPLETON       MOCLDY    63  55  77 SW6       29.70F
CLINTONVILLE   CLOUDY    63  55  77 W3        29.67F
OSHKOSH        MOCLDY    66  60  81 SW6       29.70F
$$

WIZ032>034-041-042-053>061-210400-
SOUTHWEST WISCONSIN

CITY           SKY/WX    TMP DP  RH WIND       PRES   REMARKS
LA CROSSE      CLOUDY    62  59  90 W9        29.79R
SPARTA         CLOUDY    61  57  88 W6        29.78R
VIROQUA        FAIR      59  59 100 SW7       29.78R
BOSCOBEL       LGT RAIN  64  61  90 CALM      29.75F
PRAIRIE DU CHI CLOUDY    61  60  95 SW5       29.79F
PLATTEVILLE    CLOUDY    63  61  94 NW15G23   29.82R
$$

WIZ056-057-062-063-064-067-068-210400-
SOUTH CENTRAL WISCONSIN

CITY           SKY/WX    TMP DP  RH WIND       PRES   REMARKS
BARABOO/DELLS  RAIN      61  57  86 W14G25    29.79R
LONE ROCK      RAIN      67  59  75 VRB5G25   29.76R
WATERTOWN      PTCLDY    63  62  98 CALM      29.72F
MADISON        CLOUDY    67  62  84 CALM      29.72F
MIDDLETON      CLOUDY    63  62  96 W9        29.75R
MONROE         PTCLDY    64  63  94 S9        29.74F
JANESVILLE     CLEAR     66  63  88 SW7       29.74F
$$

WIZ051-052-058>065-066-070>072-210400-
SOUTHEAST WISCONSIN

CITY           SKY/WX    TMP DP  RH WIND       PRES   REMARKS
MILWAUKEE      MOCLDY    68  64  87 SW8       29.73F
WAUKESHA       PTCLDY    64  61  88 SW6       29.74F
MILWAUKEE/TIMM PTCLDY    66  61  82 SW6       29.73F
RACINE         PTCLDY    68  63  84 SW8       29.74F
BURLINGTON     PTCLDY    62  61  97 SW5       29.74F
KENOSHA        CLEAR     66  64  93 SW7       29.74F
FOND DU LAC    MOCLDY    64  61  90 SW5       29.71F
SHEBOYGAN      PTCLDY    63  60  90 SW7       29.70F
WEST BEND      MOCLDY    63  57  82 SW3       29.71F
JUNEAU         PTCLDY    63  60  91 CALM      29.73F
$$

LSZ147-162-210400-
LAKE SUPERIOR

STATION/POSITION TIME  TEMP    WIND        PRES    WAVE
                       AIR SEA DIR/SP/G            HT/PER
                 (UTC) (F)     (DEG/KT/KT) (MB)    (FT/S)
W MID LAKE BUOY  0250   50 46   50/  8/ 10 1005.4F   1/ 4
DEVILS ISLAND    0300   54      50/  8/  8 1005.3F
PORT WING        0200   56     270/  8/ 12 1006.1R
SAXON HARBOR     0200   56        CALM     1005.8R
$$

LMZ867-665-643>646-210400-
LAKE MICHIGAN

STATION/POSITION TIME  TEMP    WIND        PRES    WAVE
                       AIR SEA DIR/SP/G            HT/PER
                 (UTC) (F)     (DEG/KT/KT) (MB)    (FT/S)
N MID LAKE BUOY  0250   59 58   30/ 12/ 14 1004.8F   3/ 6
NORTHPORT PIER   0300   61      30/  8/ 17 1005.1S
SISTER BAY       0242           80/  9/ 19   N/A
KEWAUNEE LAKESHO 0300   66     270/  4/  6 1003.9F
SHEBOYGAN LAKESH 0300   67 54  240/  9/ 10 1005.6F
PORT WASHINGTON  0240   67     250/  3/  5 1006.8F
ATWATER BUOY     0300   60     180/  6/  8 1007.4F
MILWAUKEE LAKESH 0300   69     210/  8/ 10   N/A
S MID LAKE BUOY  0250   66 63  210/ 14/ 16 1006.8F   1/ 3
KENOSHA   LAKESH 0300   69     220/  9/ 15 1006.8F
$$

TC  - TEMPERATURE IN CELSIUS
VSB - VISIBILITY IN STATUTE MILES
WCI - WIND CHILL INDEX
HX  - HEAT INDEX




USA.gov is the U.S. government's official web portal to all federal, state and local government web resources and services.